When you browse on this site, cookies collect data to enhance your experience and personalize the content and advertising you see.
Visit our Privacy Policy to learn more. By continuing to use the site, you agree to this use of cookies and data.
  • In United Kingdom
  • List of Countries
  • For 7 days
  • Water Temperature
  • Weather Map
  • Weather Widgets
  • user-avatar
    Login

    Hourly Weather Cisnadie

    Today, 29 February, Saturday

    Time Temperature Precipitation Wind Pressure Humidity
    00:00 -1°C° 0.7 mm 2 mps 714 mmHg 93%
    01:00 -1°C° 0.7 mm 3 mps 715 mmHg 94%
    02:00 -1°C° 0 mm 3 mps 715 mmHg 95%
    03:00 -1°C° 0.6 mm 3 mps 716 mmHg 95%
    04:00 -1°C° 0.6 mm 3 mps 716 mmHg 95%
    05:00 -1°C° 0.6 mm 3 mps 717 mmHg 95%
    06:00 -1°C° 0.2 mm 2 mps 717 mmHg 93%
    07:00 -1°C° 0.2 mm 2 mps 718 mmHg 92%
    08:00 -1°C° 0 mm 2 mps 718 mmHg 91%
    09:00 +1°C° 0 mm 2 mps 718 mmHg 86%
    10:00 +3°C° 0 mm 1 mps 718 mmHg 81%
    11:00 +4°C° 0 mm 1 mps 718 mmHg 76%
    12:00 +5°C° 0 mm 1 mps 718 mmHg 72%
    13:00 +5°C° 0 mm 1 mps 718 mmHg 68%
    14:00 +6°C° 0 mm 1 mps 718 mmHg 65%
    15:00 +6°C° 0 mm 1 mps 718 mmHg 67%
    16:00 +6°C° 0 mm 1 mps 717 mmHg 69%
    17:00 +5°C° 0 mm 1 mps 717 mmHg 71%
    18:00 +4°C° 0 mm 1 mps 717 mmHg 74%
    19:00 +2°C° 0 mm 2 mps 717 mmHg 77%
    20:00 +1°C° 0 mm 2 mps 717 mmHg 81%
    21:00 +1°C° 0 mm 2 mps 717 mmHg 79%
    22:00 +1°C° 0 mm 2 mps 717 mmHg 78%
    23:00 +1°C° 0 mm 2 mps 717 mmHg 77%

    Tomorrow, 1 March, Sunday

    Time Temperature Precipitation Wind Pressure Humidity
    00:00 +1°C° 0 mm 2 mps 717 mmHg 75%
    01:00 +1°C° 0 mm 2 mps 717 mmHg 73%
    02:00 +2°C° 0 mm 1 mps 717 mmHg 71%
    03:00 +2°C° 0 mm 1 mps 716 mmHg 70%
    04:00 +3°C° 0 mm 1 mps 716 mmHg 69%
    05:00 +3°C° 0 mm 1 mps 716 mmHg 68%
    06:00 +3°C° 0 mm 1 mps 716 mmHg 68%
    07:00 +3°C° 0 mm 1 mps 716 mmHg 67%
    08:00 +2°C° 0 mm 2 mps 716 mmHg 67%
    09:00 +5°C° 0 mm 1 mps 716 mmHg 64%
    10:00 +6°C° 0 mm 1 mps 716 mmHg 61%
    11:00 +8°C° 0 mm 1 mps 716 mmHg 57%
    12:00 +8°C° 0 mm 2 mps 716 mmHg 56%
    13:00 +8°C° 0 mm 2 mps 716 mmHg 55%
    14:00 +9°C° 0 mm 2 mps 715 mmHg 53%
    15:00 +8°C° 0 mm 2 mps 715 mmHg 57%
    16:00 +9°C° 0 mm 1 mps 715 mmHg 61%
    17:00 +8°C° 0 mm 1 mps 714 mmHg 65%
    18:00 +7°C° 0 mm 1 mps 714 mmHg 66%
    19:00 +5°C° 0 mm 2 mps 715 mmHg 67%
    20:00 +4°C° 0 mm 2 mps 715 mmHg 68%
    21:00 +4°C° 0 mm 2 mps 714 mmHg 68%
    22:00 +4°C° 0 mm 2 mps 714 mmHg 68%
    23:00 +4°C° 0 mm 2 mps 714 mmHg 69%

    Day after tomorrow, 2 March, Monday

    Time Temperature Precipitation Wind Pressure Humidity
    00:00 +4°C° 0 mm 2 mps 714 mmHg 70%
    01:00 +4°C° 0 mm 2 mps 713 mmHg 72%
    02:00 +4°C° 0 mm 2 mps 713 mmHg 73%
    03:00 +4°C° 0 mm 2 mps 712 mmHg 76%
    04:00 +4°C° 0 mm 2 mps 712 mmHg 79%
    05:00 +4°C° 0 mm 2 mps 711 mmHg 82%
    06:00 +5°C° 0.2 mm 2 mps 711 mmHg 82%
    07:00 +5°C° 0.2 mm 2 mps 711 mmHg 81%
    08:00 +4°C° 0.2 mm 3 mps 711 mmHg 81%
    09:00 +5°C° 0.4 mm 3 mps 711 mmHg 81%
    10:00 +5°C° 0.4 mm 3 mps 711 mmHg 80%
    11:00 +7°C° 0.4 mm 3 mps 711 mmHg 80%
    12:00 +8°C° 0 mm 3 mps 711 mmHg 76%
    13:00 +9°C° 0 mm 3 mps 711 mmHg 73%
    14:00 +10°C° 0 mm 3 mps 711 mmHg 70%
    15:00 +10°C° 0 mm 3 mps 710 mmHg 72%
    16:00 +9°C° 0 mm 2 mps 710 mmHg 75%
    17:00 +9°C° 0 mm 2 mps 710 mmHg 78%
    18:00 +8°C° 0 mm 2 mps 710 mmHg 80%
    19:00 +7°C° 0 mm 2 mps 710 mmHg 82%
    20:00 +6°C° 0 mm 2 mps 711 mmHg 84%
    21:00 +6°C° 0 mm 2 mps 711 mmHg 84%
    22:00 +6°C° 0 mm 2 mps 711 mmHg 85%
    23:00 +6°C° 0 mm 2 mps 711 mmHg 85%

    3 March, Tuesday

    Time Temperature Precipitation Wind Pressure Humidity
    00:00 +6°C° 0 mm 2 mps 711 mmHg 85%
    01:00 +6°C° 0 mm 2 mps 711 mmHg 85%
    02:00 +6°C° 0 mm 2 mps 711 mmHg 84%
    03:00 +6°C° 0 mm 2 mps 710 mmHg 85%
    04:00 +6°C° 0 mm 2 mps 710 mmHg 85%
    05:00 +6°C° 0 mm 2 mps 709 mmHg 86%
    06:00 +7°C° 0 mm 2 mps 709 mmHg 85%
    07:00 +7°C° 0 mm 2 mps 709 mmHg 85%
    08:00 +7°C° 0 mm 2 mps 709 mmHg 84%
    09:00 +9°C° 0.1 mm 3 mps 709 mmHg 78%
    10:00 +11°C° 0.1 mm 3 mps 709 mmHg 72%
    11:00 +12°C° 0.1 mm 4 mps 709 mmHg 65%
    12:00 +12°C° 0.1 mm 4 mps 708 mmHg 67%
    13:00 +12°C° 0.1 mm 3 mps 708 mmHg 68%
    14:00 +12°C° 0.1 mm 3 mps 708 mmHg 69%
    15:00 +11°C° 0 mm 3 mps 707 mmHg 71%
    16:00 +11°C° 0 mm 3 mps 707 mmHg 73%
    17:00 +11°C° 0 mm 3 mps 706 mmHg 75%
    18:00 +10°C° 0.1 mm 2 mps 706 mmHg 78%
    19:00 +10°C° 0.1 mm 2 mps 706 mmHg 81%
    20:00 +9°C° 0.1 mm 2 mps 706 mmHg 84%
    21:00 +9°C° 0.2 mm 2 mps 706 mmHg 84%
    22:00 +9°C° 0.2 mm 2 mps 706 mmHg 84%
    23:00 +9°C° 0.2 mm 2 mps 706 mmHg 84%

    4 March, Wednesday

    Time Temperature Precipitation Wind Pressure Humidity
    00:00 +9°C° 0.4 mm 2 mps 706 mmHg 85%
    01:00 +9°C° 0.4 mm 2 mps 705 mmHg 86%
    02:00 +9°C° 0.4 mm 2 mps 705 mmHg 88%
    03:00 +9°C° 0.5 mm 2 mps 705 mmHg 88%
    04:00 +9°C° 0.5 mm 2 mps 704 mmHg 89%
    05:00 +8°C° 0.5 mm 2 mps 704 mmHg 89%
    06:00 +8°C° 0.2 mm 2 mps 704 mmHg 89%
    07:00 +8°C° 0.2 mm 2 mps 703 mmHg 89%
    08:00 +8°C° 0.2 mm 2 mps 703 mmHg 89%
    09:00 +9°C° 0.7 mm 2 mps 703 mmHg 85%
    10:00 +10°C° 0.7 mm 2 mps 703 mmHg 81%
    11:00 +12°C° 0.7 mm 1 mps 702 mmHg 77%
    12:00 +10°C° 3.4 mm 2 mps 702 mmHg 81%
    13:00 +9°C° 3.4 mm 2 mps 701 mmHg 86%
    14:00 +8°C° 3.4 mm 2 mps 701 mmHg 90%
    15:00 +8°C° 1.6 mm 2 mps 702 mmHg 89%
    16:00 +8°C° 1.6 mm 3 mps 702 mmHg 88%
    17:00 +8°C° 1.6 mm 3 mps 702 mmHg 88%
    18:00 +7°C° 0.3 mm 3 mps 703 mmHg 89%
    19:00 +5°C° 0.3 mm 3 mps 704 mmHg 90%
    20:00 +5°C° 0.3 mm 3 mps 705 mmHg 91%
    21:00 +4°C° 0.3 mm 3 mps 705 mmHg 90%
    22:00 +4°C° 0.3 mm 3 mps 706 mmHg 89%
    23:00 +4°C° 0.3 mm 3 mps 706 mmHg 88%

    5 March, Thursday

    Time Temperature Precipitation Wind Pressure Humidity
    00:00 +3°C° 0.2 mm 3 mps 706 mmHg 88%
    01:00 +3°C° 0.2 mm 3 mps 707 mmHg 89%
    02:00 +3°C° 0.2 mm 2 mps 707 mmHg 89%
    03:00 +3°C° 0.2 mm 2 mps 707 mmHg 90%
    04:00 +3°C° 0.2 mm 2 mps 707 mmHg 90%
    05:00 +3°C° 0.2 mm 2 mps 707 mmHg 91%
    06:00 +3°C° 0.1 mm 2 mps 708 mmHg 90%
    07:00 +2°C° 0.1 mm 2 mps 708 mmHg 89%
    08:00 +2°C° 0.1 mm 2 mps 708 mmHg 88%
    09:00 +1°C° 0.2 mm 3 mps 708 mmHg 88%
    10:00 +2°C° 0.2 mm 3 mps 709 mmHg 87%
    11:00 +2°C° 0.2 mm 3 mps 709 mmHg 86%
    12:00 +3°C° 0.3 mm 2 mps 709 mmHg 87%
    13:00 +3°C° 0.3 mm 2 mps 709 mmHg 89%
    14:00 +4°C° 0.3 mm 1 mps 709 mmHg 90%
    15:00 +4°C° 0.3 mm 1 mps 710 mmHg 90%
    16:00 +4°C° 0.3 mm 1 mps 710 mmHg 90%
    17:00 +3°C° 0.3 mm 2 mps 710 mmHg 90%
    18:00 +3°C° 0.2 mm 1 mps 710 mmHg 91%
    19:00 +3°C° 0.2 mm 1 mps 711 mmHg 93%
    20:00 +2°C° 0.2 mm 1 mps 711 mmHg 94%
    21:00 +2°C° 0.2 mm 1 mps 712 mmHg 94%
    22:00 +2°C° 0.2 mm 1 mps 712 mmHg 94%
    23:00 +2°C° 0.2 mm 1 mps 712 mmHg 94%
    Show more